DW4771 Weather Reports


Display with metric or nautical units.
time (UTC)temp
F
wind
direction
speed
MPH
gust
MPH
rain 1hr
in
rain 24hr
in
rain mn
in
humidity
%
barometer
mb
20170822204407 54 261 1.0 4.0 0.00 0.01 0.01 90 1011.1
20170822203608 55 277 2.0 4.0 0.00 0.01 0.01 90 1011.1
20170822202807 55 307 1.0 4.0 0.00 0.01 0.01 90 1010.9
20170822202007 55 298 2.0 4.0 0.00 0.01 0.01 90 1010.9
20170822201208 55 280 1.0 3.0 0.00 0.01 0.01 88 1011.1
20170822200408 55 270 0.0 2.0 0.00 0.01 0.01 87 1011.1
20170822195607 56 270 0.0 2.0 0.00 0.01 0.01 87 1011.2
20170822194008 57 275 1.0 4.0 0.00 0.01 0.01 86 1011.2
20170822193207 57 273 1.0 4.0 0.00 0.01 0.01 86 1011.3
20170822191607 58 290 2.0 6.0 0.00 0.01 0.01 85 1011.3
20170822184407 58 291 3.0 6.0 0.00 0.01 0.01 84 1011.1
20170822183607 58 283 1.0 4.0 0.00 0.01 0.01 86 1011.1
20170822182807 58 277 0.0 2.0 0.00 0.01 0.01 86 1011.0
20170822175607 59 270 0.0 4.0 0.00 0.01 0.01 85 1010.8
20170822174807 59 270 1.0 4.0 0.00 0.01 0.01 85 1010.8
20170822173207 59 0 0.0 0.0 0.00 0.01 0.01 84 1010.7
20170822170807 60 311 1.0 3.0 0.00 0.01 0.01 83 1010.6
20170822164407 60 272 2.0 4.0 0.00 0.01 0.01 83 1010.6
20170822162807 60 299 2.0 4.0 0.01 0.01 0.01 82 1010.5
20170822161207 59 311 1.0 4.0 0.01 0.01 0.01 80 1010.4
20170822155607 60 301 3.0 7.0 0.01 0.01 0.01 80 1010.6
20170822150007 65 243 1.0 3.0 0.00 0.01 0.00 68 1010.7
20170822145207 65 255 1.0 4.0 0.00 0.02 0.00 68 1010.7
20170822143607 65 314 3.0 7.0 0.00 0.04 0.00 62 1010.8
20170822142807 66 337 3.0 8.0 0.00 0.04 0.00 59 1010.8
20170822142007 67 339 4.0 8.0 0.00 0.04 0.00 56 1010.7
20170822141207 67 343 2.0 6.0 0.00 0.04 0.00 55 1010.7
20170822140407 69 355 2.0 5.0 0.00 0.04 0.00 52 1010.7
20170822135607 69 356 2.0 4.0 0.00 0.04 0.00 51 1010.9
20170822134807 70 2 1.0 5.0 0.00 0.04 0.00 51 1010.8
20170822134007 69 24 2.0 4.0 0.00 0.04 0.00 52 1010.8
20170822132407 69 9 2.0 8.0 0.00 0.04 0.00 51 1010.9
20170822130807 69 315 4.0 8.0 0.00 0.04 0.00 52 1011.1
20170822130007 69 302 2.0 8.0 0.00 0.04 0.00 52 1011.1
20170822125207 69 292 2.0 6.0 0.00 0.04 0.00 51 1011.3
20170822123607 68 292 3.0 7.0 0.00 0.04 0.00 53 1011.4
20170822122007 67 302 3.0 8.0 0.00 0.04 0.00 53 1011.4
20170822121207 67 312 4.0 8.0 0.00 0.04 0.00 54 1011.5
20170822120407 68 310 5.0 12.0 0.00 0.04 0.00 53 1011.7
20170822115607 68 330 5.0 12.0 0.00 0.04 0.00 53 1011.7
20170822114007 67 317 7.0 15.0 0.00 0.04 0.00 55 1011.7
20170822111607 67 314 7.0 17.0 0.00 0.04 0.00 54 1011.9
20170822105207 67 325 6.0 15.0 0.00 0.04 0.00 55 1012.1
20170822104407 67 324 6.0 14.0 0.00 0.04 0.00 55 1012.1
20170822102807 66 319 6.0 12.0 0.00 0.04 0.00 56 1012.1
20170822102007 65 330 7.0 13.0 0.00 0.04 0.00 56 1012.2
20170822101207 65 317 8.0 14.0 0.00 0.04 0.00 57 1012.2
20170822100407 65 318 8.0 15.0 0.00 0.04 0.00 57 1012.5
20170822095607 65 322 8.0 15.0 0.00 0.04 0.00 57 1012.4
20170822094807 65 322 7.0 12.0 0.00 0.04 0.00 59 1012.5
20170822094007 65 325 6.0 11.0 0.00 0.04 0.00 60 1012.5
20170822090807 66 317 4.0 11.0 0.00 0.04 0.00 57 1012.6
20170822090007 66 319 3.0 6.0 0.00 0.04 0.00 60 1012.5
20170822085207 66 299 2.0 5.0 0.00 0.04 0.00 61 1012.6
20170822084407 66 298 2.0 7.0 0.00 0.04 0.00 61 1012.7
20170822082807 65 4 2.0 5.0 0.00 0.04 0.00 64 1012.7
20170822082007 65 331 3.0 8.0 0.00 0.04 0.00 64 1012.8
20170822080407 65 303 2.0 4.0 0.00 0.04 0.00 64 1012.8
20170822075607 65 308 3.0 8.0 0.00 0.04 0.00 65 1012.8
20170822074007 65 268 3.0 7.0 0.00 0.04 0.00 64 1012.7
20170822071607 64 238 1.0 4.0 0.00 0.04 0.00 75 1013.0
20170822070807 63 261 1.0 4.0 0.00 0.04 0.00 77 1013.1
20170822070007 62 256 1.0 4.0 0.00 0.04 0.00 80 1013.3
20170822065207 62 240 1.0 4.0 0.00 0.04 0.00 85 1013.1
20170822064407 61 233 1.0 4.0 0.00 0.04 0.00 87 1013.3
20170822063607 60 242 1.0 3.0 0.00 0.04 0.00 87 1013.3
20170822062807 59 255 0.0 2.0 0.00 0.04 0.00 88 1013.4
20170822062007 58 270 0.0 3.0 0.00 0.04 0.00 88 1013.3
20170822055607 57 270 1.0 4.0 0.00 0.04 0.00 89 1013.5
20170822053207 56 264 0.0 3.0 0.00 0.04 0.00 92 1013.4
20170822052407 57 246 1.0 4.0 0.00 0.04 0.00 93 1013.3
20170822050006 54 253 0.0 2.0 0.00 0.04 0.00 94 1013.3
20170822044407 53 309 0.0 2.0 0.00 0.04 0.00 93 1013.3
20170822042806 53 0 0.0 0.0 0.00 0.04 0.00 94 1013.4
20170822041206 52 0 0.0 0.0 0.00 0.04 0.00 94 1013.3
20170822040407 52 259 0.0 3.0 0.00 0.04 0.00 94 1013.3
20170822034806 52 262 0.0 2.0 0.00 0.04 0.00 94 1013.4
20170822034007 52 269 0.0 2.0 0.00 0.04 0.00 94 1013.2
20170822033206 52 0 0.0 2.0 0.00 0.04 0.00 94 1013.2
20170822032406 51 274 0.0 3.0 0.00 0.04 0.00 94 1013.3
20170822030007 51 289 0.0 3.0 0.00 0.04 0.00 94 1013.1
20170822025206 51 269 1.0 3.0 0.00 0.04 0.00 95 1013.1
20170822022806 51 300 0.0 2.0 0.00 0.04 0.00 95 1013.2
20170822015607 51 270 0.0 2.0 0.00 0.04 0.00 95 1013.3
20170822013206 51 270 0.0 3.0 0.00 0.04 0.00 95 1013.3
20170822012406 51 268 1.0 3.0 0.00 0.04 0.00 95 1013.3
20170822005206 50 257 0.0 2.0 0.00 0.04 0.00 95 1013.3
20170822004406 50 265 1.0 3.0 0.00 0.05 0.00 95 1013.3
20170822001206 50 0 0.0 1.0 0.00 0.06 0.00 95 1013.3
20170821235606 50 0 0.0 2.0 0.00 0.06 0.00 94 1013.3
20170821234806 50 253 0.0 2.0 0.00 0.06 0.00 94 1013.3
20170821234006 50 255 0.0 2.0 0.00 0.06 0.00 94 1013.3
20170821231606 50 259 0.0 3.0 0.00 0.06 0.00 94 1013.5
20170821230806 50 0 0.0 1.0 0.00 0.06 0.00 94 1013.6
20170821230006 50 266 0.0 2.0 0.00 0.06 0.00 94 1013.6
20170821224406 50 270 0.0 3.0 0.00 0.06 0.00 94 1013.6
20170821222806 51 254 0.0 2.0 0.00 0.06 0.00 94 1013.8
20170821222006 51 258 0.0 2.0 0.00 0.06 0.00 94 1013.7
20170821220406 51 253 0.0 2.0 0.00 0.06 0.00 93 1013.8
20170821215606 51 0 0.0 0.0 0.00 0.06 0.06 93 1013.8
20170821214006 52 274 0.0 3.0 0.00 0.06 0.06 93 1013.8
20170821210806 52 270 0.0 2.0 0.00 0.06 0.06 92 1013.7
20170821205206 53 270 0.0 2.0 0.00 0.06 0.06 92 1013.8